ハリントン-エーベル彗星

52P/Harrington-Abell (2006)

English version
Home page
Total 6,336 html files since Dec. 4, 1995
Updated on May 9, 2007

---------------------------------------------------------------------

・ プロフィール

・ 軌道要素

Epoch 2006 Aug. 13.0 TT = JDT 2453960.5
T 2006 Aug. 14.7749 TT                                  MPCN
q   1.757114             (2000.0)            P               Q
n   0.1307932      Peri.  139.0847      -0.4465158      -0.8921250
a   3.843669       Node   337.1778      +0.7677615      -0.3424959
e   0.542855       Incl.   10.2205      +0.4595279      -0.2946345
P   7.54
From 428 observations 1975-1999, mean residual 0".8.  Nongravitational
     parameters A1 = +0.37, A2 = +0.0061.

・ 星図

・ 光度変化

        m1 = 9.5 + 5 logΔ + 20.0 log r

        ※ 灰色の曲線は、m1 = 4.0 + 5 logΔ + 30 log r の光度曲線です。

---------------------------------------------------------------------

軌道要素はMPCのEphemerides and Orbital Elementsに掲載されたものです。
星図は StellaNavigator Ver.2.0 for Windows (アストロアーツ 編著 / アスキー出版局刊) で作成したものです。
光度グラフはComet for Windowsで作成したものです。

---------------------------------------------------------------------

Copyright(C) 1995-2008 Seiichi Yoshida (comet@aerith.net). All rights reserved.